Regional Weather Roundup
Issued by NWS

Home | Current Version | Previous Version | Text Only | Print | Product List | Glossary Off
Versions: 1 2 3 4 5 6 7 8 9 10 11 12 13 14 15 16 17 18 19 20 21 22 23 24 25 26 27 28 29 30 31 32 33 34 35 36 37 38 39 40 41 42 43 44 45 46 47 48 49 50

000
ASUS43 KOAX 311210
RWRNE

WEATHER ROUNDUP FOR NEBRASKA
NATIONAL WEATHER SERVICE OMAHA NE
600 AM CST SAT JAN 31 2015

NOTES: SATELLITE DATA IS BEING USED TO AUGMENT CLOUD COVER ABOVE
       12000 FEET.
       "FAIR" INDICATES FEW OR NO CLOUDS BELOW 12,000 FEET WITH NO
       SIGNIFICANT WEATHER AND/OR OBSTRUCTIONS TO VISIBILITY.

  * THESE STATIONS DO NOT REPORT WEATHER SUCH AS RAIN...SNOW OR FOG.

NEZ001>004-019>022-054>056-311300-
NEBRASKA PANHANDLE

CITY           SKY/WX    TMP DP  RH WIND       PRES   REMARKS
SCOTTSBLUFF    CLOUDY    32  28  85 NW5       29.95F WCI  27
6HR MIN TEMP:  32; 6HR MAX TEMP:  35;

ALLIANCE       CLOUDY    29  26  89 CALM      29.95S
6HR MIN TEMP:  28; 6HR MAX TEMP:  30;

CHADRON        CLOUDY    27  25  92 CALM      30.00S
6HR MIN TEMP:  26; 6HR MAX TEMP:  29;

KIMBALL        CLOUDY    33  27  80 NW5       29.90F WCI  28
SIDNEY         CLOUDY    32  27  81 NE8       29.93F WCI  25
6HR MIN TEMP:  29; 6HR MAX TEMP:  33;

$$

NEZ057>060-069>072-079>082-311300-
SOUTHWEST NEBRASKA

CITY           SKY/WX    TMP DP  RH WIND       PRES   REMARKS
NORTH PLATTE   CLOUDY    33  31  92 SE5       29.99F WCI  29
6HR MIN TEMP:  33; 6HR MAX TEMP:  38;

IMPERIAL       LGT SNOW  33  31  92 E6        29.95F FOG     WCI  28
6HR MIN TEMP:  33; 6HR MAX TEMP:  37; 6HR PCP: TRACE;

LEXINGTON      FLURRIES  33  32  95 S10       30.03F WCI  25
MCCOOK         CLOUDY    34  32  92 SE6       29.99F WCI  29
6HR MIN TEMP:  34; 6HR MAX TEMP:  36; 6HR PCP:  0.01;

OGALLALA       FOG       33  33  98 SE3       29.96F VSB 3/4
$$

NEZ005>010-023>029-035>040-094-311300-
NORTH CENTRAL NEBRASKA

CITY           SKY/WX    TMP DP  RH WIND       PRES   REMARKS
VALENTINE      CLOUDY    30  24  78 NE10      30.00F WCI  21
6HR MIN TEMP:  27; 6HR MAX TEMP:  31;

AINSWORTH      CLOUDY    28  28  96 SE5       30.00F WCI  23
BROKEN BOW     CLOUDY    35  32  88 S8        30.02F WCI  29
6HR MIN TEMP:  35; 6HR MAX TEMP:  37;

O`NEILL        CLOUDY    32  32  99 CALM      30.04F
ORD            CLOUDY    35  31  85 S7        30.04F WCI  29
6HR MIN TEMP:  34; 6HR MAX TEMP:  39;

THEDFORD       CLOUDY    36  34  92 CALM      29.99F FOG
$$

NEZ041-046>049-061>064-073>077-083>087-311300-
SOUTH CENTRAL NEBRASKA

CITY           SKY/WX    TMP DP  RH WIND       PRES   REMARKS
GRAND ISLAND   LGT SNOW  33  31  92 S9        30.10F FOG     WCI  25
6HR MIN TEMP:  33; 6HR MAX TEMP:  38; 6HR PCP: TRACE;

AURORA         MIX PCPN  33  33  99 S8        30.10F WCI  26
HASTINGS       LGT SNOW  32  31  96 S8        30.08F FOG     WCI  25
6HR MIN TEMP:  32; 6HR MAX TEMP:  36; 6HR PCP:  0.03;

HEBRON         LGT SNOW  33  32  95 S8        30.15S WCI  26
HOLDREGE       LGT SNOW  32  32  97 S10       30.04F WCI  24
KEARNEY *      CLOUDY    32  30  93 S10       30.06F WCI  24
YORK           MIX PCPN  32  32 100 S12       30.12F WCI  23
$$

NEZ011>018-030>034-042>045-311300-
NORTHEAST NEBRASKA

CITY           SKY/WX    TMP DP  RH WIND       PRES   REMARKS
NORFOLK        CLOUDY    36  32  85 S7        30.08F WCI  30
6HR MIN TEMP:  33; 6HR MAX TEMP:  37;

ALBION         CLOUDY    35  32  86 S6        30.08F WCI  30
BLAIR          CLOUDY    38  33  81 S14       30.15S WCI  30
COLUMBUS *     CLOUDY    36  28  75 S12       30.13F WCI  27
FREMONT        CLOUDY    38  34  83 S8        30.15F WCI  33
TEKAMAH        CLOUDY    36  32  85 S8        30.15F WCI  30
6HR MIN TEMP:  32; 6HR MAX TEMP:  36;

WAYNE          CLOUDY    33  31  92 S8        30.10F WCI  27
$$

NEZ050>053-065>068-078-088>093-311300-
SOUTHEAST NEBRASKA

CITY           SKY/WX    TMP DP  RH WIND       PRES   REMARKS
LINCOLN        LGT RAIN  37  34  89 S12       30.17F WCI  29
6HR MIN TEMP:  37; 6HR MAX TEMP:  39; 6HR PCP: TRACE;

OMAHA EPPLEY   CLOUDY    35  29  78 SE8       30.18F WCI  29
6HR MIN TEMP:  31; 6HR MAX TEMP:  37;

BEATRICE       LGT RAIN  34  33  97 S12       30.17F WCI  25
FALLS CITY     LGT RAIN  36  34  92 S6        30.23S WCI  31
6HR MIN TEMP:  34; 6HR MAX TEMP:  37; 6HR PCP:  0.06;

NEBRASKA CITY  DRIZZLE   36  35  97 SW10      30.20S WCI  28
PLATTSMOUTH    DRIZZLE   36  33  88 S8        30.18F WCI  30
$$

NEZ044-045-051>053-067-311300-
OMAHA AREA

CITY           SKY/WX    TMP DP  RH WIND       PRES   REMARKS
OMAHA EPPLEY   CLOUDY    35  29  78 SE8       30.18F WCI  29
6HR MIN TEMP:  31; 6HR MAX TEMP:  37;

BLAIR          CLOUDY    38  33  81 S14       30.15S WCI  30
FREMONT        CLOUDY    38  34  83 S8        30.15F WCI  33
MILLARD        CLOUDY    39  34  82 S5        30.17F
OFFUTT AFB     MIX PCPN  34  30  86 SE5       30.18S WCI  30
PLATTSMOUTH    DRIZZLE   36  33  88 S8        30.18F WCI  30
WAHOO          CLOUDY    37  32  81 S8        30.16S WCI  31
$$


USA.gov is the U.S. government's official web portal to all federal, state and local government web resources and services.